TimeMST,TemperatureF,Dew PointF,Humidity,Sea Level PressureIn,VisibilityMPH,Wind Direction,Wind SpeedMPH,Gust SpeedMPH,PrecipitationIn,Events,Conditions,WindDirDegrees,DateUTC
12:15 AM,50.0,35.6,58,29.83,10.0,SSE,15.0,-,N/A,,Clear,160,2013-02-20 07:15:00
12:35 AM,50.0,35.6,58,29.82,10.0,SSE,18.4,21.9,N/A,,Clear,160,2013-02-20 07:35:00
12:55 AM,50.0,35.6,58,29.82,10.0,SSE,16.1,-,N/A,,Clear,160,2013-02-20 07:55:00
1:15 AM,50.0,35.6,58,29.81,10.0,SSE,16.1,21.9,N/A,,Clear,160,2013-02-20 08:15:00
1:35 AM,50.0,35.6,58,29.80,10.0,SSE,13.8,-,N/A,,Clear,160,2013-02-20 08:35:00
1:55 AM,50.0,33.8,54,29.78,10.0,SSE,18.4,24.2,N/A,,Clear,160,2013-02-20 08:55:00
2:15 AM,50.0,33.8,54,29.78,10.0,SSE,17.3,25.3,N/A,,Clear,160,2013-02-20 09:15:00
2:35 AM,50.0,33.8,54,29.76,10.0,SSE,21.9,27.6,N/A,,Clear,160,2013-02-20 09:35:00
2:55 AM,50.0,32.0,50,29.76,10.0,SSE,20.7,28.8,N/A,,Clear,160,2013-02-20 09:55:00
3:15 AM,50.0,32.0,50,29.76,10.0,South,15.0,-,N/A,,Clear,170,2013-02-20 10:15:00
3:35 AM,50.0,32.0,50,29.75,10.0,SSE,18.4,-,N/A,,Clear,160,2013-02-20 10:35:00
3:55 AM,50.0,32.0,50,29.75,10.0,South,15.0,-,N/A,,Clear,170,2013-02-20 10:55:00
4:15 AM,50.0,32.0,50,29.74,10.0,SSW,12.7,-,N/A,,Clear,200,2013-02-20 11:15:00
4:35 AM,50.0,32.0,50,29.73,10.0,SSE,17.3,25.3,N/A,,Clear,160,2013-02-20 11:35:00
5:15 AM,50.0,32.0,50,29.72,10.0,SSE,20.7,26.5,N/A,,Clear,160,2013-02-20 12:15:00
5:55 AM,48.2,30.2,50,29.72,10.0,South,16.1,21.9,N/A,,Clear,170,2013-02-20 12:55:00
6:15 AM,48.2,30.2,50,29.72,10.0,South,15.0,21.9,N/A,,Clear,180,2013-02-20 13:15:00
6:35 AM,46.4,30.2,53,29.72,10.0,SSW,13.8,24.2,N/A,,Clear,210,2013-02-20 13:35:00
6:55 AM,41.0,32.0,70,29.73,10.0,SSW,10.4,-,N/A,,Clear,210,2013-02-20 13:55:00
7:15 AM,41.0,32.0,70,29.73,10.0,South,10.4,-,N/A,,Clear,190,2013-02-20 14:15:00
7:35 AM,44.6,32.0,61,29.73,10.0,South,11.5,-,N/A,,Clear,190,2013-02-20 14:35:00
7:55 AM,50.0,30.2,47,29.73,10.0,South,17.3,21.9,N/A,,Clear,180,2013-02-20 14:55:00
8:15 AM,51.8,28.4,41,29.73,10.0,South,19.6,26.5,N/A,,Clear,170,2013-02-20 15:15:00
8:55 AM,53.6,28.4,38,29.73,10.0,South,21.9,28.8,N/A,,Clear,180,2013-02-20 15:55:00
9:15 AM,55.4,28.4,36,29.73,10.0,South,20.7,24.2,N/A,,Clear,190,2013-02-20 16:15:00
9:35 AM,53.6,30.2,41,29.74,10.0,SSW,13.8,21.9,N/A,,Clear,210,2013-02-20 16:35:00
9:55 AM,55.4,32.0,41,29.74,10.0,SSW,18.4,24.2,N/A,,Clear,200,2013-02-20 16:55:00
10:15 AM,55.4,26.6,33,29.73,10.0,SSW,17.3,24.2,N/A,,Clear,200,2013-02-20 17:15:00
10:35 AM,55.4,24.8,31,29.72,10.0,SSW,12.7,23.0,N/A,,Clear,200,2013-02-20 17:35:00
10:55 AM,57.2,24.8,29,29.71,10.0,SW,16.1,21.9,N/A,,Clear,220,2013-02-20 17:55:00
11:15 AM,57.2,19.4,23,29.71,10.0,SW,17.3,24.2,N/A,,Clear,220,2013-02-20 18:15:00
11:35 AM,59.0,19.4,22,29.70,10.0,South,19.6,32.2,N/A,,Clear,190,2013-02-20 18:35:00
11:55 AM,59.0,15.8,19,29.69,10.0,SSW,21.9,26.5,N/A,,Partly Cloudy,200,2013-02-20 18:55:00
12:15 PM,59.0,14.0,17,29.68,10.0,South,19.6,29.9,N/A,,Clear,180,2013-02-20 19:15:00
12:35 PM,59.0,12.2,16,29.66,10.0,SW,13.8,32.2,N/A,,Scattered Clouds,220,2013-02-20 19:35:00
12:55 PM,59.0,14.0,17,29.65,10.0,SSW,17.3,23.0,N/A,,Scattered Clouds,200,2013-02-20 19:55:00
1:15 PM,59.0,12.2,16,29.63,10.0,SSW,19.6,27.6,N/A,,Partly Cloudy,200,2013-02-20 20:15:00
1:35 PM,60.8,12.2,15,29.62,7.0,SW,23.0,32.2,N/A,,Clear,220,2013-02-20 20:35:00
1:55 PM,59.0,10.4,15,29.61,3.0,SW,24.2,32.2,N/A,,Haze,220,2013-02-20 20:55:00
2:15 PM,59.0,12.2,16,29.60,5.0,SW,25.3,38.0,N/A,,Haze,220,2013-02-20 21:15:00
2:35 PM,60.8,12.2,15,29.60,5.0,SW,26.5,36.8,N/A,,Haze,230,2013-02-20 21:35:00
2:55 PM,59.0,14.0,17,29.60,6.0,SW,21.9,31.1,N/A,,Haze,230,2013-02-20 21:55:00
3:15 PM,59.0,15.8,19,29.59,10.0,West,24.2,31.1,N/A,,Clear,260,2013-02-20 22:15:00
3:35 PM,59.0,15.8,19,29.59,10.0,West,25.3,32.2,N/A,,Clear,260,2013-02-20 22:35:00
3:55 PM,57.2,15.8,20,29.60,10.0,West,17.3,26.5,N/A,,Clear,260,2013-02-20 22:55:00
4:15 PM,57.2,15.8,20,29.60,10.0,West,20.7,27.6,N/A,,Partly Cloudy,260,2013-02-20 23:15:00
4:35 PM,55.4,14.0,20,29.60,9.0,West,17.3,25.3,N/A,,Clear,270,2013-02-20 23:35:00
4:55 PM,55.4,14.0,20,29.60,9.0,SW,13.8,20.7,N/A,,Scattered Clouds,230,2013-02-20 23:55:00
5:15 PM,55.4,14.0,20,29.60,10.0,WSW,8.1,-,N/A,,Mostly Cloudy,250,2013-02-21 00:15:00
5:55 PM,53.6,14.0,21,29.61,5.0,West,15.0,18.4,N/A,,Haze,280,2013-02-21 00:55:00
6:15 PM,51.8,15.8,24,29.61,8.0,WNW,15.0,18.4,N/A,,Partly Cloudy,290,2013-02-21 01:15:00
6:35 PM,50.0,15.8,26,29.62,6.0,West,6.9,-,N/A,,Haze,270,2013-02-21 01:35:00
6:55 PM,50.0,17.6,28,29.62,10.0,West,11.5,-,N/A,,Scattered Clouds,260,2013-02-21 01:55:00
7:15 PM,48.2,23.0,37,29.63,8.0,West,15.0,27.6,N/A,,Partly Cloudy,260,2013-02-21 02:15:00
7:35 PM,46.4,24.8,43,29.64,4.0,West,17.3,-,N/A,,Haze,270,2013-02-21 02:35:00
7:55 PM,46.4,26.6,46,29.66,10.0,WSW,10.4,23.0,N/A,,Clear,250,2013-02-21 02:55:00
8:15 PM,44.6,26.6,49,29.67,10.0,West,17.3,20.7,N/A,,Mostly Cloudy,270,2013-02-21 03:15:00
8:35 PM,42.8,28.4,57,29.70,10.0,WSW,21.9,35.7,N/A,,Overcast,250,2013-02-21 03:35:00
8:55 PM,39.2,30.2,70,29.74,10.0,SW,15.0,24.2,N/A,,Mostly Cloudy,230,2013-02-21 03:55:00
9:15 PM,39.2,28.4,65,29.75,10.0,SW,10.4,20.7,N/A,,Overcast,230,2013-02-21 04:15:00
9:35 PM,39.2,28.4,65,29.75,10.0,SSE,13.8,-,N/A,,Mostly Cloudy,160,2013-02-21 04:35:00
9:55 PM,39.2,28.4,65,29.71,10.0,SE,16.1,-,N/A,,Scattered Clouds,130,2013-02-21 04:55:00
10:15 PM,39.2,26.6,61,29.70,10.0,SSE,19.6,23.0,N/A,,Mostly Cloudy,160,2013-02-21 05:15:00
10:35 PM,39.2,26.6,61,29.69,10.0,South,17.3,-,N/A,,Partly Cloudy,170,2013-02-21 05:35:00
10:55 PM,39.2,21.2,49,29.68,10.0,South,18.4,25.3,N/A,,Partly Cloudy,170,2013-02-21 05:55:00
11:15 PM,39.2,21.2,49,29.69,10.0,South,21.9,28.8,N/A,,Clear,180,2013-02-21 06:15:00
11:35 PM,39.2,19.4,45,29.71,10.0,South,16.1,24.2,N/A,,Clear,180,2013-02-21 06:35:00
11:55 PM,37.4,15.8,41,29.73,10.0,SSW,12.7,-,N/A,,Clear,210,2013-02-21 06:55:00